Red Oak, IA

4:43 AM CST on February 10, 2016 (GMT -0600)
Red Oak Municipal

Weather History for KRDK - October, 2012

Change the Weather History Date:

Sunday, October 14, 2012

  Actual Average Record
Temperature  
Mean Temperature 56 °F -  
Max Temperature 66 °F 69 °F 87 °F (1973)
Min Temperature 46 °F 41 °F 22 °F (1979)
Degree Days  
Heating Degree Days 9    
Growing Degree Days 6 (Base 50)    
Moisture  
Dew Point 47 °F    
Average Humidity 68    
Maximum Humidity 94    
Minimum Humidity 32    
Precipitation  
Precipitation 0.86 in - - ()
Sea Level Pressure  
Sea Level Pressure 29.81 in    
Wind  
Wind Speed 10 mph (NW)    
Max Wind Speed 25 mph    
Max Gust Speed 39 mph    
Visibility 10 miles    
Events Rain    
Averages and records for this station are not official NWS values.
T = Trace of Precipitation, MM = Missing Value Source: NWS Daily Summary

Daily Weather History Graph

Daily Weather History Graph

Search for Another Location

Airport or City:

Trip Planner

Search our weather history database for the weather conditions in past years. The results will help you decide how hot, cold, wet, or windy it might be!

Date:

Astronomy

Oct. 14, 2012 Rise Set
Actual Time 7:31 AM CDT 6:41 PM CDT
Civil Twilight 7:04 AM CDT 7:08 PM CDT
Nautical Twilight 6:32 AM CDT 7:40 PM CDT
Astronomical Twilight 6:00 AM CDT 8:12 PM CDT
Moon 6:32 AM CDT (10/14) 6:01 PM CDT (10/14)
Length of Visible Light 12h 04m
Length of Day
11h 09m
Waning Crescent, 1% of the Moon is Illuminated
Oct 14
Waning Crescent
Oct 15
New
Oct 21
First Quarter
Oct 29
Full
Nov 6
Last Quarter

Hourly Weather History & Observations

Time (CDT) Temp. Dew Point Humidity Pressure Visibility Wind Dir Wind Speed Gust Speed Precip Events Conditions
12:15 AM 62.6 °F 57.2 °F 82% 29.57 in 10.0 mi ENE 9.2 mph - N/A   Scattered Clouds
12:35 AM 62.6 °F 57.2 °F 82% 29.59 in 10.0 mi East 5.8 mph - N/A   Scattered Clouds
12:55 AM 62.6 °F 57.2 °F 82% 29.60 in 10.0 mi SW 4.6 mph - N/A   Overcast
1:15 AM 62.6 °F 57.2 °F 82% 29.60 in 10.0 mi Calm Calm - N/A   Overcast
1:35 AM 62.6 °F 57.2 °F 82% 29.60 in 10.0 mi ENE 3.5 mph - N/A   Overcast
1:55 AM 62.6 °F 59.0 °F 88% 29.61 in 10.0 mi Calm Calm - N/A Rain Light Rain
2:35 AM 62.6 °F 57.2 °F 82% 29.61 in 10.0 mi WNW 4.6 mph - N/A   Overcast
2:55 AM 62.6 °F 57.2 °F 82% 29.59 in 10.0 mi Calm Calm - N/A   Overcast
3:15 AM 62.6 °F 57.2 °F 82% 29.58 in 10.0 mi Calm Calm - N/A   Overcast
3:35 AM 62.6 °F 57.2 °F 82% 29.59 in 10.0 mi North 5.8 mph - N/A   Overcast
3:55 AM 62.6 °F 57.2 °F 82% 29.59 in 10.0 mi North 6.9 mph - 0.01 in   Drizzle
4:15 AM 62.6 °F 57.2 °F 82% 29.61 in 10.0 mi NNW 10.4 mph - 0.05 in Rain Heavy Rain
4:35 AM 62.6 °F 57.2 °F 82% 29.61 in 10.0 mi NNW 10.4 mph - 0.26 in Rain Heavy Rain
4:55 AM 60.8 °F 55.4 °F 82% 29.62 in 3.0 mi North 25.3 mph 39.1 mph 0.51 in Rain Heavy Rain
5:15 AM 59.0 °F 55.4 °F 88% 29.63 in 7.0 mi North 18.4 mph 26.5 mph 0.13 in Rain Rain
5:35 AM 57.2 °F 53.6 °F 88% 29.64 in 10.0 mi North 16.1 mph - 0.21 in Rain Rain
5:55 AM 57.2 °F 53.6 °F 88% 29.65 in 10.0 mi NNW 11.5 mph - 0.24 in Rain Light Rain
6:15 AM 57.2 °F 53.6 °F 88% 29.66 in 10.0 mi NNW 11.5 mph 20.7 mph 0.04 in Rain Rain
6:35 AM 57.2 °F 53.6 °F 88% 29.67 in 10.0 mi NNW 16.1 mph - 0.10 in Rain Rain
6:55 AM 55.4 °F 51.8 °F 88% 29.68 in 7.0 mi NNW 11.5 mph - 0.10 in   Overcast
7:15 AM 55.4 °F 51.8 °F 88% 29.69 in 7.0 mi NNW 13.8 mph 17.3 mph N/A   Overcast
7:35 AM 55.4 °F 51.8 °F 88% 29.71 in 7.0 mi NNW 11.5 mph 21.9 mph N/A   Overcast
7:55 AM 53.6 °F 51.8 °F 94% 29.72 in 7.0 mi NNW 19.6 mph 26.5 mph N/A   Overcast
8:15 AM 53.6 °F 50.0 °F 88% 29.73 in 7.0 mi NNW 16.1 mph 25.3 mph N/A   Mostly Cloudy
8:35 AM 53.6 °F 51.8 °F 94% 29.74 in 7.0 mi NNW 12.7 mph 23.0 mph N/A   Clear
8:55 AM 55.4 °F 50.0 °F 82% 29.76 in 7.0 mi NW 13.8 mph 23.0 mph N/A   Clear
9:15 AM 55.4 °F 50.0 °F 82% 29.78 in 7.0 mi NW 17.3 mph 27.6 mph N/A   Clear
9:35 AM 55.4 °F 50.0 °F 82% 29.79 in 5.0 mi NW 18.4 mph 24.2 mph N/A   Haze
9:55 AM 55.4 °F 46.4 °F 72% 29.80 in 10.0 mi NW 23.0 mph 32.2 mph N/A   Scattered Clouds
10:15 AM 55.4 °F 46.4 °F 72% 29.81 in 10.0 mi NW 12.7 mph 25.3 mph N/A   Clear
10:35 AM 55.4 °F 46.4 °F 72% 29.83 in 10.0 mi NW 18.4 mph 24.2 mph N/A   Clear
10:55 AM 55.4 °F 44.6 °F 67% 29.84 in 10.0 mi NW 18.4 mph 27.6 mph N/A   Clear
11:15 AM 57.2 °F 44.6 °F 63% 29.85 in 10.0 mi NW 21.9 mph 28.8 mph N/A   Clear
11:35 AM 57.2 °F 44.6 °F 63% 29.85 in 10.0 mi NNW 23.0 mph 29.9 mph N/A   Clear
11:55 AM 59.0 °F 44.6 °F 59% 29.86 in 10.0 mi NW 18.4 mph 28.8 mph N/A   Clear
12:15 PM 59.0 °F 44.6 °F 59% 29.88 in 10.0 mi NW 19.6 mph 25.3 mph N/A   Clear
12:35 PM 60.8 °F 42.8 °F 52% 29.88 in 10.0 mi NNW 20.7 mph 27.6 mph N/A   Clear
12:55 PM 60.8 °F 42.8 °F 52% 29.88 in 10.0 mi NNW 18.4 mph 31.1 mph N/A   Clear
1:15 PM 62.6 °F 42.8 °F 48% 29.88 in 10.0 mi NW 18.4 mph 27.6 mph N/A   Clear
1:35 PM 62.6 °F 42.8 °F 48% 29.89 in 10.0 mi NW 16.1 mph 23.0 mph N/A   Clear
1:55 PM 62.6 °F 41.0 °F 45% 29.89 in 10.0 mi NNW 18.4 mph 23.0 mph N/A   Clear
2:15 PM 64.4 °F 39.2 °F 40% 29.89 in 10.0 mi NW 20.7 mph 28.8 mph N/A   Clear
2:35 PM 64.4 °F 39.2 °F 40% 29.89 in 10.0 mi NW 18.4 mph 29.9 mph N/A   Clear
2:55 PM 66.2 °F 37.4 °F 35% 29.90 in 10.0 mi NW 18.4 mph 25.3 mph N/A   Clear
3:15 PM 66.2 °F 37.4 °F 35% 29.90 in 10.0 mi NW 19.6 mph 25.3 mph N/A   Clear
3:35 PM 66.2 °F 37.4 °F 35% 29.91 in 10.0 mi NW 20.7 mph 26.5 mph N/A   Clear
3:55 PM 66.2 °F 35.6 °F 32% 29.91 in 10.0 mi NW 17.3 mph 28.8 mph N/A   Clear
4:15 PM 66.2 °F 37.4 °F 35% 29.92 in 10.0 mi NW 15.0 mph 21.9 mph N/A   Clear
4:35 PM 66.2 °F 37.4 °F 35% 29.92 in 10.0 mi NW 12.7 mph 18.4 mph N/A   Clear
4:55 PM 66.2 °F 37.4 °F 35% 29.92 in 10.0 mi NW 12.7 mph 17.3 mph N/A   Clear
5:15 PM 66.2 °F 37.4 °F 35% 29.93 in 10.0 mi NW 11.5 mph 16.1 mph N/A   Clear
5:35 PM 66.2 °F 37.4 °F 35% 29.93 in 10.0 mi NW 8.1 mph - N/A   Clear
5:55 PM 64.4 °F 39.2 °F 40% 29.93 in 10.0 mi NW 9.2 mph - N/A   Clear
6:15 PM 64.4 °F 39.2 °F 40% 29.93 in 10.0 mi WNW 6.9 mph - N/A   Clear
6:35 PM 60.8 °F 41.0 °F 48% 29.94 in 10.0 mi WNW 4.6 mph - N/A   Clear
6:55 PM 59.0 °F 41.0 °F 51% 29.94 in 10.0 mi WNW 6.9 mph - N/A   Clear
7:15 PM 60.8 °F 41.0 °F 48% 29.95 in 10.0 mi WNW 6.9 mph - N/A   Clear
7:35 PM 55.4 °F 41.0 °F 58% 29.95 in 10.0 mi West 4.6 mph - N/A   Scattered Clouds
7:55 PM 53.6 °F 42.8 °F 67% 29.96 in 10.0 mi West 5.8 mph - N/A   Scattered Clouds
8:15 PM 51.8 °F 42.8 °F 71% 29.96 in 10.0 mi West 5.8 mph - N/A   Clear
8:35 PM 51.8 °F 42.8 °F 71% 29.96 in 10.0 mi West 4.6 mph - N/A   Clear
8:55 PM 51.8 °F 42.8 °F 71% 29.96 in 10.0 mi West 3.5 mph - N/A   Clear
9:15 PM 48.2 °F 42.8 °F 82% 29.96 in 10.0 mi Calm Calm - N/A   Clear
9:35 PM 48.2 °F 42.8 °F 82% 29.96 in 10.0 mi Calm Calm - N/A   Clear
9:55 PM 46.4 °F 41.0 °F 81% 29.97 in 10.0 mi Calm Calm - N/A   Clear
10:15 PM 46.4 °F 41.0 °F 81% 29.97 in 10.0 mi Calm Calm - N/A   Clear
10:35 PM 46.4 °F 41.0 °F 81% 29.97 in 10.0 mi Calm Calm - N/A   Scattered Clouds
10:55 PM 46.4 °F 41.0 °F 81% 29.98 in 10.0 mi Calm Calm - N/A   Clear
11:15 PM 46.4 °F 41.0 °F 81% 29.98 in 10.0 mi Calm Calm - N/A   Clear
11:35 PM 48.2 °F 41.0 °F 76% 29.98 in 10.0 mi Calm Calm - N/A   Clear
11:55 PM 46.4 °F 41.0 °F 81% 29.98 in 10.0 mi Calm Calm - N/A   Scattered Clouds